Location: Unspecified
(0.0000°N, 0.0000°E)
Time: 19:41:43
(UTC+00:00)

FENGYUN 1C DEB - Pass Details

Date: 21 February 2026
Orbit: 775 x 802 km, 98.9° (Epoch: 9 April)

Event Time Altitude Azimuth Distance (km) Brightness Sun altitude
Rises 05:22:40 0° 200° (SSW) 3,204 ? -12.5°
Reaches altitude 10° 05:25:55 10° 223° (SW) 2,282 ? -11.7°
Maximum altitude 05:28:43 15° 257° (WSW) 1,954 ? -11.0°
Enters shadow 05:30:05 14° 275° (W) 2,040 ? -10.7°
